Regional Weather Roundup
Issued by NWS

Home | Current Version | Previous Version | Text Only | Print | Product List | Glossary On
Versions: 1 2 3 4 5 6 7 8 9 10 11 12 13 14 15 16 17 18 19 20 21 22 23 24 25 26 27 28 29 30 31 32 33 34 35 36 37 38 39 40 41 42 43 44 45 46 47 48 49 50
000
ASUS43 KLMK 270002
RWRKY
KENTUCKY REGIONAL WEATHER ROUNDUP
NATIONAL WEATHER SERVICE LOUISVILLE KY
800 PM EDT WED APR 26 2017

NOTE "FAIR" INDICATES FEW OR NO CLOUDS BELOW 12,000 FEET
WITH NO SIGNIFICANT WEATHER AND/OR OBSTRUCTIONS TO VISIBILITY.

KYZ001>023-026-027-061>063-070>075-270100-
WESTERN AND SOUTH CENTRAL KENTUCKY

CITY           SKY/WX    TMP DP  RH WIND       PRES   REMARKS
PADUCAH        CLOUDY    65  55  70 NE7       29.48F
HENDERSON      MOCLDY    77  58  51 S12       29.49F
OWENSBORO      CLEAR     78  58  49 S12       29.51F
HOPKINSVILLE   NOT AVBL
BOWLING GREEN  CLEAR     78  56  46 S13       29.58F
GLASGOW        NOT AVBL
$$

KYZ024-025-028>034-038-045-046-053-270100-
NORTH CENTRAL KENTUCKY

CITY           SKY/WX    TMP DP  RH WIND       PRES   REMARKS
LOUISVILLE/SDF CLOUDY    81  53  37 S13       29.56F
LOUISVILLE/LOU CLOUDY    80  53  39 S10G21    29.56F
FORT KNOX      CLEAR     76  53  44 S12       29.55F
$$

KYZ035>037-039>044-047>052-055>060-089>105-270100-
NORTHEAST KENTUCKY

CITY           SKY/WX    TMP DP  RH WIND       PRES   REMARKS
LEXINGTON      CLEAR     77  54  44 SW5       29.61F
COVINGTON      CLOUDY    76  52  43 S13       29.59R
FRANKFORT      CLOUDY    78  51  38 S5        29.59F
$$

KYZ054-064>069-076>088-106>120-270100-
SOUTHEAST KENTUCKY

CITY           SKY/WX    TMP DP  RH WIND       PRES   REMARKS
JACKSON        CLEAR     78  50  37 CALM      29.67F
LONDON         CLEAR     77  50  38 VRB3      29.66F
SOMERSET       NOT AVBL
MIDDLESBORO    CLEAR     76  59  54 CALM      29.69F
MONTICELLO     CLEAR     76  58  53 NE8       29.65F
$$





USA.gov is the U.S. government's official web portal to all federal, state and local government web resources and services.